Simultaneous Nadir Overpasses (SNOs) Predictions

Prediction of SNOs between GOES-17 and AQUA Satellite Orbit:

Table of predicted SNOs for the next 14.0 days since TLE Epoch: 11/28/2020
Index Date Time (GOES-17) GOES-17 Lat,Lon AQUA Lat,Lon Distance(km) Time Diff (sec)
1 11/29/2020 10:39:23 0.00,-137.25 -0.35,-135.71 175.49 80
2 11/29/2020 22:58:06 0.00,-137.24 -0.76,-140.90 415.45 80
3 12/01/2020 22:45:55 -0.00,-137.24 -0.12,-137.94 79.60 80
4 12/03/2020 22:36:23 -0.01,-137.23 0.46,-134.98 255.53 80
5 12/04/2020 10:54:59 0.00,-137.23 0.62,-140.14 330.67 80
6 12/06/2020 10:42:47 0.01,-137.21 0.02,-137.18 4.63 80
7 12/08/2020 10:33:16 0.00,-137.19 -0.63,-134.23 337.37 80
8 12/08/2020 22:52:00 -0.00,-137.18 -0.48,-139.41 254.43 80
9 12/10/2020 22:42:28 -0.00,-137.15 0.13,-136.45 78.79 80
